• In United Kingdom
  • List of Countries
  • For 7 days
  • Water Temperature
  • Satellite Maps
  • Weather Map
  • Weather Widgets
  • user-avatar
    Login

    Hourly Weather Nampula

    Today, 21 September, Thursday

    Time Temperature Precipitation Wind Pressure Humidity
    00:00 +22°C° 0.1 mm 1 mps 609 mmHg 56%
    01:00 +21°C° 0 mm 1 mps 609 mmHg 56%
    02:00 +21°C° 0 mm 1 mps 609 mmHg 56%
    03:00 +21°C° 0 mm 1 mps 608 mmHg 56%
    04:00 +20°C° 0 mm 1 mps 608 mmHg 53%
    05:00 +18°C° 0 mm 0 mps 608 mmHg 51%
    06:00 +18°C° 0 mm 0 mps 608 mmHg 49%
    07:00 +20°C° 0 mm 0 mps 609 mmHg 42%
    08:00 +24°C° 0 mm 1 mps 610 mmHg 35%
    09:00 +25°C° 0 mm 1 mps 611 mmHg 28%
    10:00 +27°C° 0 mm 2 mps 611 mmHg 26%
    11:00 +28°C° 0 mm 3 mps 611 mmHg 24%
    12:00 +29°C° 0 mm 3 mps 611 mmHg 23%
    13:00 +29°C° 0 mm 4 mps 611 mmHg 23%
    14:00 +29°C° 0 mm 4 mps 610 mmHg 24%
    15:00 +29°C° 0 mm 4 mps 610 mmHg 24%
    16:00 +28°C° 0 mm 4 mps 609 mmHg 27%
    17:00 +27°C° 0 mm 3 mps 609 mmHg 31%
    18:00 +26°C° 0 mm 3 mps 609 mmHg 34%
    19:00 +26°C° 0 mm 2 mps 609 mmHg 36%
    20:00 +25°C° 0 mm 2 mps 609 mmHg 38%
    21:00 +24°C° 0 mm 1 mps 609 mmHg 40%
    22:00 +24°C° 0 mm 1 mps 609 mmHg 42%
    23:00 +23°C° 0 mm 1 mps 609 mmHg 43%

    Tomorrow, 22 September, Friday

    Time Temperature Precipitation Wind Pressure Humidity
    00:00 +22°C° 0 mm 1 mps 608 mmHg 45%
    01:00 +22°C° 0 mm 1 mps 608 mmHg 47%
    02:00 +21°C° 0 mm 1 mps 608 mmHg 49%
    03:00 +21°C° 0 mm 1 mps 607 mmHg 51%
    04:00 +20°C° 0 mm 1 mps 607 mmHg 49%
    05:00 +18°C° 0 mm 0 mps 607 mmHg 48%
    06:00 +18°C° 0 mm 0 mps 607 mmHg 46%
    07:00 +20°C° 0 mm 0 mps 608 mmHg 39%
    08:00 +22°C° 0 mm 0 mps 609 mmHg 32%
    09:00 +26°C° 0 mm 1 mps 611 mmHg 25%
    10:00 +27°C° 0 mm 1 mps 611 mmHg 23%
    11:00 +28°C° 0 mm 2 mps 611 mmHg 20%
    12:00 +30°C° 0 mm 3 mps 611 mmHg 18%
    13:00 +30°C° 0 mm 4 mps 611 mmHg 18%
    14:00 +30°C° 0 mm 4 mps 610 mmHg 18%
    15:00 +30°C° 0 mm 5 mps 610 mmHg 18%
    16:00 +29°C° 0 mm 4 mps 609 mmHg 21%
    17:00 +28°C° 0 mm 4 mps 609 mmHg 24%
    18:00 +27°C° 0 mm 3 mps 609 mmHg 28%
    19:00 +26°C° 0 mm 2 mps 609 mmHg 31%
    20:00 +25°C° 0 mm 2 mps 609 mmHg 33%
    21:00 +24°C° 0 mm 1 mps 609 mmHg 36%
    22:00 +24°C° 0 mm 1 mps 609 mmHg 39%
    23:00 +23°C° 0 mm 1 mps 609 mmHg 42%

    Day after tomorrow, 23 September, Saturday

    Time Temperature Precipitation Wind Pressure Humidity
    00:00 +22°C° 0 mm 1 mps 609 mmHg 44%
    01:00 +22°C° 0 mm 1 mps 609 mmHg 47%
    02:00 +21°C° 0 mm 1 mps 608 mmHg 50%
    03:00 +21°C° 0 mm 1 mps 608 mmHg 54%
    04:00 +20°C° 0 mm 1 mps 608 mmHg 55%
    05:00 +20°C° 0 mm 1 mps 608 mmHg 56%
    06:00 +20°C° 0 mm 1 mps 608 mmHg 58%
    07:00 +22°C° 0 mm 1 mps 609 mmHg 48%
    08:00 +24°C° 0 mm 1 mps 610 mmHg 39%
    09:00 +26°C° 0 mm 1 mps 611 mmHg 29%
    10:00 +27°C° 0 mm 2 mps 612 mmHg 25%
    11:00 +29°C° 0 mm 3 mps 612 mmHg 20%
    12:00 +30°C° 0 mm 4 mps 612 mmHg 16%
    13:00 +30°C° 0 mm 4 mps 611 mmHg 16%
    14:00 +30°C° 0 mm 5 mps 611 mmHg 17%
    15:00 +32°C° 0 mm 5 mps 610 mmHg 17%
    16:00 +29°C° 0 mm 5 mps 610 mmHg 20%
    17:00 +28°C° 0 mm 4 mps 609 mmHg 22%
    18:00 +27°C° 0 mm 4 mps 609 mmHg 25%
    19:00 +26°C° 0 mm 3 mps 609 mmHg 27%
    20:00 +25°C° 0 mm 2 mps 609 mmHg 30%
    21:00 +24°C° 0 mm 1 mps 610 mmHg 32%
    22:00 +23°C° 0 mm 1 mps 609 mmHg 33%
    23:00 +23°C° 0 mm 1 mps 609 mmHg 33%

    24 September, Sunday

    Time Temperature Precipitation Wind Pressure Humidity
    00:00 +22°C° 0 mm 1 mps 609 mmHg 33%
    01:00 +22°C° 0 mm 1 mps 608 mmHg 37%
    02:00 +21°C° 0 mm 1 mps 608 mmHg 40%
    03:00 +18°C° 0 mm 0 mps 607 mmHg 43%
    04:00 +18°C° 0 mm 0 mps 607 mmHg 42%
    05:00 +20°C° 0 mm 1 mps 608 mmHg 42%
    06:00 +19°C° 0 mm 1 mps 608 mmHg 41%
    07:00 +22°C° 0 mm 1 mps 609 mmHg 34%
    08:00 +24°C° 0 mm 1 mps 610 mmHg 27%
    09:00 +26°C° 0 mm 1 mps 611 mmHg 19%
    10:00 +27°C° 0 mm 2 mps 611 mmHg 19%
    11:00 +28°C° 0 mm 3 mps 611 mmHg 18%
    12:00 +30°C° 0 mm 4 mps 611 mmHg 17%
    13:00 +30°C° 0 mm 4 mps 611 mmHg 18%
    14:00 +30°C° 0 mm 4 mps 610 mmHg 18%
    15:00 +30°C° 0 mm 5 mps 610 mmHg 18%
    16:00 +29°C° 0 mm 4 mps 610 mmHg 22%
    17:00 +28°C° 0 mm 3 mps 609 mmHg 25%
    18:00 +26°C° 0 mm 3 mps 609 mmHg 28%
    19:00 +25°C° 0 mm 2 mps 609 mmHg 30%
    20:00 +25°C° 0 mm 2 mps 609 mmHg 33%
    21:00 +24°C° 0 mm 1 mps 609 mmHg 35%
    22:00 +23°C° 0 mm 1 mps 609 mmHg 35%
    23:00 +23°C° 0 mm 1 mps 609 mmHg 36%

    25 September, Monday

    Time Temperature Precipitation Wind Pressure Humidity
    00:00 +20°C° 0 mm 0 mps 609 mmHg 36%
    01:00 +19°C° 0 mm 0 mps 608 mmHg 39%
    02:00 +21°C° 0 mm 1 mps 608 mmHg 42%
    03:00 +20°C° 0 mm 1 mps 607 mmHg 44%
    04:00 +20°C° 0 mm 1 mps 607 mmHg 45%
    05:00 +19°C° 0 mm 1 mps 607 mmHg 47%
    06:00 +19°C° 0 mm 1 mps 607 mmHg 48%
    07:00 +21°C° 0 mm 1 mps 609 mmHg 39%
    08:00 +23°C° 0 mm 1 mps 610 mmHg 30%
    09:00 +25°C° 0 mm 1 mps 611 mmHg 21%
    10:00 +26°C° 0 mm 2 mps 611 mmHg 19%
    11:00 +28°C° 0 mm 3 mps 611 mmHg 18%
    12:00 +29°C° 0 mm 4 mps 611 mmHg 16%
    13:00 +29°C° 0 mm 4 mps 610 mmHg 17%
    14:00 +29°C° 0 mm 4 mps 610 mmHg 18%
    15:00 +29°C° 0 mm 4 mps 610 mmHg 19%
    16:00 +28°C° 0 mm 4 mps 609 mmHg 22%
    17:00 +27°C° 0 mm 4 mps 609 mmHg 26%
    18:00 +26°C° 0 mm 3 mps 609 mmHg 30%
    19:00 +25°C° 0 mm 3 mps 609 mmHg 33%
    20:00 +25°C° 0 mm 2 mps 609 mmHg 35%
    21:00 +24°C° 0 mm 2 mps 609 mmHg 38%
    22:00 +23°C° 0 mm 1 mps 609 mmHg 38%
    23:00 +23°C° 0 mm 1 mps 608 mmHg 39%

    26 September, Tuesday

    Time Temperature Precipitation Wind Pressure Humidity
    00:00 +22°C° 0 mm 1 mps 608 mmHg 39%
    01:00 +21°C° 0 mm 1 mps 608 mmHg 41%
    02:00 +21°C° 0 mm 1 mps 607 mmHg 42%
    03:00 +20°C° 0 mm 1 mps 607 mmHg 44%
    04:00 +19°C° 0 mm 1 mps 607 mmHg 43%
    05:00 +19°C° 0 mm 1 mps 607 mmHg 42%
    06:00 +19°C° 0 mm 1 mps 607 mmHg 41%
    07:00 +21°C° 0 mm 1 mps 608 mmHg 35%
    08:00 +23°C° 0 mm 1 mps 609 mmHg 29%
    09:00 +25°C° 0 mm 1 mps 610 mmHg 22%
    10:00 +26°C° 0 mm 2 mps 610 mmHg 21%
    11:00 +27°C° 0 mm 3 mps 611 mmHg 20%
    12:00 +28°C° 0 mm 4 mps 611 mmHg 18%
    13:00 +29°C° 0 mm 4 mps 610 mmHg 19%
    14:00 +29°C° 0 mm 4 mps 610 mmHg 20%
    15:00 +29°C° 0 mm 5 mps 609 mmHg 21%
    16:00 +28°C° 0 mm 4 mps 609 mmHg 24%
    17:00 +27°C° 0 mm 4 mps 609 mmHg 28%
    18:00 +26°C° 0 mm 4 mps 609 mmHg 31%
    19:00 +25°C° 0 mm 3 mps 609 mmHg 34%
    20:00 +24°C° 0 mm 2 mps 609 mmHg 37%
    21:00 +23°C° 0 mm 2 mps 609 mmHg 40%
    22:00 +23°C° 0 mm 2 mps 609 mmHg 40%
    23:00 +22°C° 0 mm 1 mps 608 mmHg 40%
    Show more